Location: Cornospital
(48.0620°N, 3.3837°W)
Time: 21:28:40
(UTC+00:00)

Cosmos 1110 Rocket - Pass Details

Date: 17 June 2021
Orbit: 752 x 782 km, 74.0° (Epoch: 02 August)

Event Time Altitude Azimuth Distance (km) Brightness Sun altitude
Exits shadow 21:36:57 - 193° (SSW) 3,161 6.8 -10.3°
Reaches altitude 10° 21:39:14 10° 191° (S) 2,272 6.0 -10.5°
Maximum altitude 21:44:21 69° 109° (ESE) 813 4.0 -11.0°
Drops below altitude 10° 21:49:32 10° 27° (NNE) 2,303 6.9 -11.5°
Sets 21:51:55 0° 25° (NNE) 3,237 7.7 -11.7°
